VK3HAG Weather Reports


time (UTC)temp
C
wind
direction
speed
KPH
gust
KPH
rain 1hr
cm
rain 24hr
cm
rain mn
cm
humidity
%
barometer
mb
20260505101505 13 0 0.0 0.0 0.00 0.03 0.03 72 1021.0
20260505100004 13 0 0.0 0.0 0.00 0.03 0.03 74 1021.1
20260505094504 14 0 0.0 0.0 0.00 0.03 0.03 73 1021.0
20260505093004 14 0 0.0 0.0 0.00 0.03 0.03 72 1021.0
20260505091504 14 0 0.0 0.0 0.00 0.03 0.03 73 1021.0
20260505090005 14 0 0.0 0.0 0.00 0.03 0.03 74 1020.9
20260505084505 14 0 0.0 0.0 0.00 0.03 0.03 73 1020.8
20260505083005 14 0 0.0 0.0 0.00 0.03 0.03 73 1020.7
20260505081504 14 0 0.0 0.0 0.00 0.03 0.03 72 1020.5
20260505080005 14 0 0.0 0.0 0.00 0.03 0.03 72 1020.4
20260505074504 14 0 0.0 0.0 0.00 0.03 0.03 72 1020.3
20260505073004 15 0 0.0 0.0 0.00 0.03 0.03 72 1020.1
20260505071505 15 0 0.0 0.0 0.00 0.03 0.03 72 1020.0
20260505070004 15 0 0.0 0.0 0.00 0.03 0.03 71 1019.9
20260505064504 15 0 0.0 0.0 0.00 0.03 0.03 72 1019.8
20260505063004 15 0 0.0 0.0 0.00 0.03 0.03 73 1019.7
20260505061504 15 0 0.0 0.0 0.00 0.03 0.03 72 1019.5
20260505060004 15 0 0.0 0.0 0.00 0.03 0.03 72 1019.4
20260505054504 15 0 0.0 0.0 0.00 0.03 0.03 71 1019.4
20260505053004 15 0 0.0 0.0 0.00 0.03 0.03 71 1019.1
20260505051505 15 0 0.0 0.0 0.00 0.03 0.03 71 1019.0
20260505041504 16 0 0.0 0.0 0.00 0.03 0.03 69 1018.5
20260505040005 16 152 0.0 3.2 0.00 0.03 0.03 68 1018.5
20260505034504 16 0 0.0 0.0 0.00 0.03 0.03 68 1018.4
20260505033004 16 0 0.0 0.0 0.00 0.03 0.03 68 1018.5
20260505031504 16 0 0.0 0.0 0.00 0.03 0.03 66 1018.5
20260505030004 16 0 0.0 0.0 0.00 0.03 0.03 67 1018.5
20260505024505 16 0 0.0 0.0 0.00 0.03 0.03 68 1018.7
20260505023005 16 1 0.0 1.6 0.00 0.03 0.03 68 1018.8
20260505021504 15 251 0.0 1.6 0.00 0.03 0.03 71 1018.9
20260505020004 15 1 0.0 1.6 0.00 0.03 0.03 71 1019.1
20260505014504 16 1 0.0 1.6 0.00 0.03 0.03 71 1019.1
20260505013004 15 10 0.0 3.2 0.00 0.03 0.03 70 1019.1
20260505011504 15 51 0.0 1.6 0.00 0.03 0.03 71 1019.1
20260505010004 15 143 0.0 1.6 0.00 0.03 0.03 73 1019.1
20260505004504 14 0 0.0 0.0 0.00 0.03 0.03 76 1019.0
20260505003005 14 0 0.0 0.0 0.00 0.03 0.03 77 1018.7
20260505001505 14 86 0.0 1.6 0.00 0.03 0.03 77 1018.7
20260505000004 13 0 0.0 0.0 0.00 0.03 0.03 80 1018.5
20260504234504 13 0 0.0 0.0 0.00 0.03 0.03 83 1018.5
20260504233004 13 274 0.0 1.6 0.00 0.03 0.03 85 1018.5
20260504231504 12 217 0.0 1.6 0.00 0.03 0.03 88 1018.4
20260504230005 12 270 0.0 1.6 0.00 0.03 0.03 91 1018.3
20260504224505 12 0 0.0 0.0 0.00 0.03 0.03 92 1018.1
20260504223004 11 0 0.0 0.0 0.00 0.03 0.03 93 1017.9
20260504221504 11 0 0.0 0.0 0.00 0.03 0.03 93 1017.6
20260504220004 11 0 0.0 0.0 0.00 0.03 0.03 92 1017.4
20260504214504 10 0 0.0 0.0 0.00 0.03 0.03 91 1017.1
20260504213004 11 0 0.0 0.0 0.00 0.03 0.03 91 1016.8
20260504211504 11 0 0.0 0.0 0.00 0.03 0.03 91 1016.5
20260504210004 11 0 0.0 0.0 0.00 0.03 0.03 90 1016.4
20260504204504 11 0 0.0 0.0 0.00 0.03 0.03 90 1016.2
20260504203004 11 0 0.0 0.0 0.00 0.03 0.03 90 1016.1
20260504201504 11 0 0.0 0.0 0.00 0.03 0.03 90 1015.7
20260504200004 12 0 0.0 0.0 0.03 0.03 0.03 90 1015.5
20260504194504 12 0 0.0 0.0 0.03 0.03 0.03 89 1015.4
20260504193004 12 0 0.0 0.0 0.03 0.03 0.03 88 1015.3
20260504191504 12 0 0.0 0.0 0.03 0.03 0.03 86 1015.2
20260504190004 12 0 0.0 0.0 0.00 0.00 0.00 84 1014.9
20260504184504 12 0 0.0 0.0 0.00 0.00 0.00 84 1014.7
20260504183005 12 0 0.0 0.0 0.00 0.00 0.00 85 1014.5
20260504181504 12 0 0.0 0.0 0.00 0.00 0.00 84 1014.3
20260504180004 12 0 0.0 0.0 0.00 0.00 0.00 83 1014.1
20260504174504 12 0 0.0 0.0 0.00 0.00 0.00 83 1014.1
20260504173004 12 0 0.0 0.0 0.00 0.00 0.00 82 1014.1
20260504171504 12 0 0.0 0.0 0.00 0.00 0.00 82 1014.0